Weather Roundup
Issued by NWS Springfield, MO

Home | Current Version | Previous Version | Text Only | Print | Product List | Glossary On
Versions: 1 2 3 4 5 6 7 8 9 10 11 12 13 14 15 16 17 18 19 20 21 22 23 24 25 26 27 28 29 30 31 32 33 34 35 36 37 38 39 40 41 42 43 44 45 46 47 48 49 50
000
NZUS99 KSGF 182359
HRRSGF

HOURLY WEATHER
NATIONAL WEATHER SERVICE SPRINGFIELD MO
700 PM CDT THU SEP 18 2014

......SGF CWA......

CITY           SKY/WX    TMP DP  RH WIND       PRES   REMARKS
SPRINGFIELD    CLEAR     69  62  78 E7        29.99R
6HR MIN TEMP:  69; 6HR MAX TEMP:  74;

JOPLIN         CLEAR     72  62  71 SE9       29.96R
6HR MIN TEMP:  70; 6HR MAX TEMP:  77;

WEST PLAINS    PTCLDY    65  60  84 CALM      30.03R
6HR MIN TEMP:  62; 6HR MAX TEMP:  68;

ROLLA          FOG       65  61  87 SW5       30.01R VSB 3/4
6HR MIN TEMP:  65; 6HR MAX TEMP:  71;

OSAGE BEACH    CLOUDY    68  61  77 S3        30.01S
BRANSON        CLOUDY    66  63  88 E9        30.02R

......SURROUNDING SGF CWA......

CITY           SKY/WX    TMP DP  RH WIND       PRES   REMARKS
CHANUTE        CLEAR     74  66  76 SE6       29.95R
PARSONS        CLEAR     74  65  73 VRB3      29.96R
COFFEYVILLE    CLEAR     74  65  73 E6        29.93R
EMPORIA        CLEAR     73  66  78 E12       29.95R
SILOAM SPRINGS CLEAR     75  63  64 CALM      29.95S
HARRISON AR    CLOUDY    67  64  90 E6        30.01R
NEAR YELLVILLE CLOUDY    64  61  88 CALM      30.01R

......KANSAS AND MISSOURI......

CITY           SKY/WX    TMP DP  RH WIND       PRES   REMARKS
KANSAS CTY INT MOCLDY    66  61  84 E7        30.01S
DOWNTOWN KC    CLOUDY    68  62  81 E5        30.00S
COLUMBIA       CLEAR     68  60  75 E7        30.01S
SEDALIA        CLOUDY    69  62  78 SE3       30.01S
ST JOSEPH      CLOUDY    67  60  78 SE5       30.00S
ST LOUIS       PTCLDY    71  53  52 E6        30.03R
SPIRIT OF STL  PTCLDY    65  57  75 CALM      30.01R
KIRKSVILLE     CLEAR     65  56  72 SE5       30.04R
WICHITA        PTCLDY    81  60  48 E17       29.91R
TOPEKA         CLOUDY    67  63  87 E9        29.98S
OLATHE         CLOUDY    66  62  87 E9        29.99F

......TENNESSEE......

CITY           SKY/WX    TMP DP  RH WIND       PRES   REMARKS
MEMPHIS        MOCLDY    75  65  70 NE13      29.94R
NASHVILLE      CLOUDY    72  59  63 NE5       29.99R

......ARKANSAS.......

CITY           SKY/WX    TMP DP  RH WIND       PRES   REMARKS
FAYETTEVILLE   MOCLDY    74  66  76 E6        29.95R
FT SMITH       CLEAR     79  66  64 E6        29.91R
LITTLE ROCK    MOCLDY    76  67  73 NE7       29.94R

......OKLAHOMA.......

CITY           SKY/WX    TMP DP  RH WIND       PRES   REMARKS
TULSA          PTCLDY    80  66  62 E6        29.90S
PONCA CITY     CLEAR     77  61  57 E14       29.90R
MCALESTER      PTCLDY    80  69  69 E3        29.90R
OKLAHOMA CITY  PTCLDY    83  66  56 S8        29.89R

......IOWA............

CITY           SKY/WX    TMP DP  RH WIND       PRES   REMARKS
DES MOINES     PTCLDY    69  52  54 S7        30.02R
QUAD CITIES    CLEAR     64  53  67 E7        30.06R

......ILLINOIS........

CITY           SKY/WX    TMP DP  RH WIND       PRES   REMARKS
QUINCY         CLEAR     70  52  52 E5        30.03S
CHICAGO        PTCLDY    62  54  74 NE12      30.12S




USA.gov is the U.S. government's official web portal to all federal, state and local government web resources and services.